Location: Ecklingerode
(51.5036°N, 10.3122°E)
Time: 01:34:29
(UTC+00:00)

Ariane Rocket - Pass Details

Date: 29 October 2020
Orbit: 759 x 770 km, 98.7° (Epoch: 23 November)

Event Time Altitude Azimuth Distance (km) Brightness Sun altitude
Exits shadow 17:53:41 29° 58° (ENE) 1,383 3.9 -18.7°
Drops below altitude 10° 17:57:57 10° 2° (N) 2,325 5.5 -19.4°
Sets 18:00:30 0° 352° (N) 3,255 6.4 -19.8°
